Вернуться в каталог

STARLINK-4745

АктивенСвязьVLEO
NORAD 53844·PAYLOAD·🇺🇸 United States

Запущен Sep 19, 2022 с Cape Canaveral Space Force Station

Loading…

Ближайшие Пролёты (ближайшие 24 часа)

TLE

СвежийSource: CelesTrak SupGP

Эпоха: Sep 15, 2026, 01:29 UTC

1 53844C 22114AC  26258.06229167  .00147900  00000+0  78744-2 0  2580
2 53844  53.1607 163.4800 0001325  83.8985 115.5456 15.14647085    11

Отслеживайте STARLINK-4745 в реальном времени с AllMySat

Download on the App Store